Regional Weather Roundup
Issued by NWS

Home | Current Version | Previous Version | Graphics & Text | Print | Product List | Glossary On
Versions: 1 2 3 4 5 6 7 8 9 10 11 12 13 14 15 16 17 18 19 20 21 22 23 24 25 26 27 28 29 30 31 32 33 34 35 36 37 38 39 40 41 42 43 44 45 46 47 48 49 50
942
ASUS43 KDTX 281601
RWRMI
MICHIGAN HOURLY REGIONAL WEATHER ROUNDUP
NATIONAL WEATHER SERVICE DETROIT/PONTIAC MI
1200 PM EDT SUN AUG 28 2016

NOTE: "FAIR" INDICATES FEW OR NO CLOUDS BELOW 12,000 FEET WITH NO
SIGNIFICANT WEATHER AND/OR OBSTRUCTION TO VISIBILITY.

MIZ047>049-052>055-059>063-066>070-074>076-081>083-281700-
SOUTHEAST LOWER MICHIGAN

CITY           SKY/WX    TMP DP  RH WIND       PRES   REMARKS
ADRIAN         CLOUDY    81  76  84 S5        30.21R
ALMA           PTSUNNY   75  68  79 W10G17    30.23R
ANN ARBOR      MOSUNNY   82  73  74 VRB3      30.20R
CARO           PTSUNNY   78  71  78 W8        30.20R
DETROIT CITY   PTSUNNY   82  74  76 VRB5      30.19S
DETROIT        PTSUNNY   82  74  76 W3        30.20R
FLINT          PTSUNNY   83  70  64 W9        30.20S
GROSSE ILE     MOSUNNY   82  74  76 NW5       30.19R
HILLSDALE      MOSUNNY   80  72  75 CALM      30.22S
HOWELL         MOSUNNY   79  71  76 CALM      30.22R

CITY           SKY/WX    TMP DP  RH WIND       PRES   REMARKS
JACKSON        PTSUNNY   79  73  82 CALM      30.22R
LAMBERTVILLE   MOSUNNY   85  75  72 W5        30.20S HX  93
LANSING        MOSUNNY   81  68  64 NW7       30.22R
LAPEER         PTSUNNY   80  70  70 NW8       30.21R
MASON          PTSUNNY   81  72  74 W10G16    30.22R
MONROE         SUNNY     84  77  79 CALM      30.18S HX  93
MT. CLEMENS    PTSUNNY   81  72  75 NW7       30.18R
PONTIAC        CLOUDY    79  71  76 W8        30.20S
PORT HURON     PTSUNNY   79  72  78 W6        30.19S
TRI CITIES     CLOUDY    75  67  76 NW9       30.21R
MIDLAND        CLOUDY    75  67  76 W7        30.20S
TROY           MOSUNNY   81  70  71 NW8       30.22S
SAGINAW HB     PTSUNNY   77  66  69 W10G18    30.21R
$$
MIZ043>046-050>051-056>058-064>065-071>073-077>080-281700-
SOUTHWEST LOWER MICHIGAN

CITY           SKY/WX    TMP DP  RH WIND       PRES   REMARKS
BATTLE CREEK   MOSUNNY   80  72  76 NW8       30.22R
BENTON HARBOR  SUNNY     80  66  62 NW7       30.21R
BIG RAPIDS     PTSUNNY   73  65  77 N5        30.23R
COLDWATER      PTSUNNY   80  73  77 N6        30.22R
FREMONT        PTSUNNY   74  64  73 NW3       30.23R
HOLLAND        SUNNY     79  67  66 NW5       30.23R
GRAND RAPIDS   MOSUNNY   78  66  66 NW8       30.23R
IONIA          FAIR      76  65  67 NW6       30.22R
KALAMAZOO      MOSUNNY   82  69  64 CALM      30.22R
LUDINGTON      PTSUNNY   72  64  75 NW6       30.22R
MARSHALL       MOSUNNY   79  72  78 CALM      30.22R
MOUNT PLEASANT CLOUDY    72  66  81 NW6       30.22S
MUSKEGON       MOSUNNY   78  66  66 VRB6      30.22S
SOUTH HAVEN    SUNNY     81  67  63 N7        30.22S
$$
MIZ016>042-281700-
NORTHERN LOWER MICHIGAN

CITY           SKY/WX    TMP DP  RH WIND       PRES   REMARKS
ALPENA         CLOUDY    71  63  75 NW8       30.19R
BEAVER ISLAND  CLOUDY    70  63  80 NW5       30.20R
BELLAIRE       CLOUDY    73  62  69 NW3       30.21R
CADILLAC       PTSUNNY   72  62  70 NW3       30.22S
CHARLEVOIX     CLOUDY    71  65  79 W12       30.23R
FRANKFORT      PTSUNNY   73  64  73 NW9       30.21R
GAYLORD        CLOUDY    69  61  75 W6        30.22R
GRAYLING       CLOUDY    72  63  72 W8        30.23R
HARBOR SPRINGS PTSUNNY   71  64  77 SW8       30.19R
HOUGHTON LAKE  PTSUNNY   72  61  68 VRB6      30.22S
MANISTEE       CLOUDY    72  62  71 NW6       30.22R
OSCODA         PTSUNNY   77  65  66 W8        30.17S
PELLSTON       PTSUNNY   73  62  68 W10G17    30.18R
ROGERS CITY    PTSUNNY   73  64  73 W9        30.18S
TRAVERSE CITY  PTSUNNY   74  62  66 VRB5      30.19R
$$
MIZ007>008-015-281700-
EASTERN UPPER MICHIGAN

CITY           SKY/WX    TMP DP  RH WIND       PRES   REMARKS
KINROSS        CLOUDY    68  61  78 NW9       30.17R
MACKINAC ISLAN PTSUNNY   70  67  90 W8        30.17S
NEWBERRY       CLOUDY    70  63  80 W7        30.17R
S. S. MARIE    PTSUNNY   70  62  76 NW12      30.16R
$$
MIZ004>006-011>014-085-281700-
CENTRAL UPPER MICHIGAN

CITY           SKY/WX    TMP DP  RH WIND       PRES   REMARKS
MANISTIQUE     PTSUNNY   73  63  71 N5        30.19R
ESCANABA       MOSUNNY   73  61  65 NW7       30.19R
MENOMINEE      MOSUNNY  N/A N/A N/A CALM      30.21
SAWYER-GWINN   PTSUNNY   70  57  64 NE3       30.21R
$$
MIZ001>003-009>011-084-281700-
WESTERN UPPER MICHIGAN

CITY           SKY/WX    TMP DP  RH WIND       PRES   REMARKS
IRON MOUNTAIN  MOSUNNY   72  57  59 N5        30.20R
HOUGHTON       CLOUDY    68  57  68 NW10      30.18S
IRONWOOD       CLOUDY    66  60  81 CALM      30.21F
$$

ABBREVIATIONS USED IN REMARKS
   TC - TEMPERATURE IN CELSIUS
  WCI - WIND CHILL INDEX
   HX - HEAT INDEX
  VSB - VISIBILITY





USA.gov is the U.S. government's official web portal to all federal, state and local government web resources and services.